CW9236 Weather Reports


time (UTC)temp
C
wind
direction
speed
KPH
gust
KPH
rain 1hr
cm
rain 24hr
cm
rain mn
cm
humidity
%
barometer
mb
20260505224004 27 57 1.6 12.9 0.00 0.00 0.00 73 1007.2
20260505223507 27 73 3.2 11.3 0.00 0.00 0.00 73 1007.1
20260505223010 28 75 4.8 11.3 0.00 0.00 0.00 72 1007.3
20260505222508 28 70 1.6 11.3 0.00 0.00 0.00 72 1007.2
20260505222010 28 66 3.2 11.3 0.00 0.00 0.00 72 1007.3
20260505221520 28 67 4.8 9.7 0.00 0.00 0.00 72 1007.2
20260505215508 28 43 4.8 9.7 0.00 0.00 0.00 70 1007.3
20260505215011 28 89 3.2 16.1 0.00 0.00 0.00 71 1007.5
20260505214523 28 51 3.2 16.1 0.00 0.00 0.00 71 1007.4
20260505214008 28 78 3.2 6.4 0.00 0.00 0.00 72 1007.5
20260505212511 28 82 4.8 12.9 0.00 0.00 0.00 70 1007.7
20260505211522 28 80 3.2 11.3 0.00 0.00 0.00 72 1007.8
20260505210511 28 72 4.8 11.3 0.00 0.00 0.00 71 1007.9
20260505210025 28 275 3.2 9.7 0.00 0.00 0.00 71 1008.0
20260505204510 28 87 3.2 16.1 0.00 0.00 0.00 70 1008.2
20260505204010 28 93 4.8 16.1 0.00 0.00 0.00 70 1008.2
20260505203507 28 50 3.2 8.0 0.00 0.00 0.00 70 1008.3
20260505203027 29 84 1.6 8.0 0.00 0.00 0.00 70 1008.4
20260505202512 28 279 3.2 8.0 0.00 0.00 0.00 71 1008.3
20260505202008 28 103 4.8 8.0 0.00 0.00 0.00 71 1008.5
20260505201522 28 55 1.6 9.7 0.00 0.00 0.00 73 1008.6
20260505201009 28 63 1.6 9.7 0.00 0.00 0.00 74 1008.7
20260505200511 28 91 0.0 6.4 0.00 0.00 0.00 74 1008.9
20260505200025 28 56 1.6 9.7 0.00 0.00 0.00 74 1008.9
20260505195511 28 69 1.6 14.5 0.00 0.00 0.00 74 1009.0
20260505194512 28 63 3.2 14.5 0.00 0.00 0.00 73 1009.1
20260505194004 28 84 4.8 12.9 0.00 0.00 0.00 73 1009.1
20260505193509 27 69 4.8 11.3 0.00 0.00 0.00 74 1009.1
20260505193020 27 50 4.8 11.3 0.00 0.00 0.00 74 1009.1
20260505192509 27 281 1.6 6.4 0.00 0.00 0.00 73 1009.1
20260505192012 28 49 1.6 8.0 0.00 0.00 0.00 72 1009.1
20260505191523 28 62 3.2 8.0 0.00 0.00 0.00 73 1009.1
20260505191009 28 51 1.6 8.0 0.00 0.00 0.00 74 1009.2
20260505190512 27 32 1.6 9.7 0.00 0.00 0.00 74 1009.2
20260505190034 27 53 3.2 11.3 0.00 0.00 0.00 74 1009.1
20260505185513 27 69 1.6 11.3 0.00 0.00 0.00 74 1009.2
20260505185005 27 51 1.6 9.7 0.00 0.00 0.00 75 1009.2
20260505184514 27 271 1.6 9.7 0.00 0.00 0.00 76 1009.3
20260505184007 27 271 0.0 9.7 0.00 0.00 0.00 76 1009.4
20260505183508 27 79 1.6 6.4 0.00 0.00 0.00 76 1009.4
20260505183018 27 53 1.6 6.4 0.00 0.00 0.00 76 1009.4
20260505182507 27 65 1.6 8.0 0.00 0.00 0.00 76 1009.4
20260505182013 27 269 3.2 8.0 0.00 0.00 0.00 76 1009.4
20260505181527 27 63 3.2 8.0 0.00 0.00 0.00 76 1009.5
20260505181011 27 57 0.0 9.7 0.00 0.00 0.00 77 1009.6
20260505180511 27 59 3.2 9.7 0.00 0.00 0.00 76 1009.5
20260505180026 27 54 3.2 9.7 0.00 0.00 0.00 77 1009.5
20260505175510 26 44 1.6 6.4 0.00 0.00 0.00 78 1009.6
20260505175014 26 49 0.0 9.7 0.00 0.00 0.00 79 1009.7
20260505174517 26 67 1.6 9.7 0.00 0.00 0.00 78 1009.7
20260505174007 26 71 3.2 9.7 0.00 0.00 0.00 78 1009.8
20260505173507 26 24 1.6 6.4 0.00 0.00 0.00 79 1009.8
20260505173034 26 80 1.6 6.4 0.00 0.00 0.00 79 1009.9
20260505172511 26 22 1.6 4.8 0.00 0.00 0.00 80 1010.0
20260505172010 26 53 0.0 4.8 0.00 0.00 0.00 80 1010.0
20260505171538 26 58 0.0 6.4 0.00 0.00 0.00 80 1010.0
20260505171011 26 34 1.6 9.7 0.00 0.00 0.00 80 1010.0
20260505170510 26 38 3.2 9.7 0.00 0.00 0.00 81 1010.1
20260505170027 26 40 1.6 6.4 0.00 0.00 0.00 80 1010.0
20260505165511 26 59 3.2 8.0 0.00 0.00 0.00 80 1010.1
20260505165004 26 60 3.2 8.0 0.00 0.00 0.00 80 1010.1
20260505164519 26 63 3.2 8.0 0.00 0.00 0.00 80 1010.1
20260505164007 26 250 0.0 4.8 0.00 0.00 0.00 81 1010.1
20260505163508 26 246 1.6 8.0 0.00 0.00 0.00 81 1010.0
20260505163025 26 55 1.6 8.0 0.00 0.00 0.00 81 1010.0
20260505162509 26 36 0.0 6.4 0.00 0.00 0.00 82 1010.1
20260505162011 25 59 1.6 6.4 0.00 0.00 0.00 82 1010.0
20260505161526 25 44 1.6 6.4 0.00 0.00 0.00 82 1010.0
20260505161011 25 277 0.0 4.8 0.00 0.00 0.00 83 1010.0
20260505160515 25 65 1.6 9.7 0.00 0.00 0.00 82 1010.0
20260505152504 23 54 1.6 6.4 0.00 0.00 0.00 87 1009.8
20260505152004 23 49 1.6 6.4 0.00 0.00 0.00 86 1009.8
20260505151511 24 82 1.6 4.8 0.00 0.00 0.00 86 1009.8
20260505151004 24 67 0.0 9.7 0.00 0.00 0.00 85 1009.7
20260505150507 24 73 1.6 9.7 0.00 0.00 0.00 85 1009.7
20260505140508 24 56 3.2 9.7 0.00 0.00 0.00 85 1009.5
20260505125011 22 71 1.6 4.8 0.00 0.00 0.00 89 1009.4
20260505124507 22 79 1.6 6.4 0.00 0.00 0.00 90 1009.1
20260505124007 22 352 1.6 9.7 0.00 0.00 0.00 90 1009.2
20260505123503 22 78 3.2 9.7 0.00 0.00 0.00 90 1009.1
20260505123012 22 57 1.6 4.8 0.00 0.00 0.00 90 1009.3
20260505122507 22 59 0.0 4.8 0.00 0.00 0.00 90 1009.2
20260505122008 21 76 1.6 4.8 0.00 0.00 0.00 90 1009.1
20260505121518 21 63 1.6 4.8 0.00 0.00 0.00 90 1009.0
20260505120507 21 360 0.0 4.8 0.00 0.00 0.00 91 1009.0
20260505120051 21 75 0.0 4.8 0.00 0.00 0.00 90 1008.8
20260505115508 21 61 1.6 4.8 0.00 0.00 0.00 90 1008.8
20260505115010 21 61 0.0 4.8 0.00 0.00 0.00 90 1008.8
20260505114002 21 72 1.6 4.8 0.00 0.00 0.00 90 1008.7
20260505112513 21 59 1.6 4.8 0.00 0.00 0.00 90 1009.2
20260505111521 21 71 1.6 3.2 0.00 0.00 0.00 90 1008.9
20260505110511 21 92 0.0 6.4 0.00 0.00 0.00 90 1008.8
20260505102015 21 88 1.6 4.8 0.00 0.00 0.00 89 1008.9
20260505101525 21 53 0.0 6.4 0.00 0.00 0.00 89 1008.9
20260505101010 21 76 1.6 6.4 0.00 0.00 0.00 89 1008.8
20260505100508 21 86 1.6 4.8 0.00 0.00 0.00 89 1008.8
20260505100029 21 83 1.6 4.8 0.00 0.00 0.00 89 1008.9
20260505095008 21 64 1.6 6.4 0.00 0.00 0.00 89 1009.1
20260505094512 21 54 0.0 4.8 0.00 0.00 0.00 89 1009.1
20260505094006 21 74 0.0 4.8 0.00 0.00 0.00 89 1009.0
20260505093506 21 67 1.6 4.8 0.00 0.00 0.00 89 1008.9
20260505093022 21 65 1.6 4.8 0.00 0.00 0.00 89 1009.0
20260505092507 21 78 0.0 3.2 0.00 0.00 0.00 89 1009.0
20260505092010 21 63 0.0 3.2 0.00 0.00 0.00 89 1009.0
20260505091528 21 73 0.0 3.2 0.00 0.00 0.00 89 1009.1
20260505091012 21 64 0.0 3.2 0.00 0.00 0.00 89 1009.2
20260505090510 21 67 0.0 3.2 0.00 0.00 0.00 89 1009.2
20260505090038 21 64 0.0 3.2 0.00 0.00 0.00 89 1009.2
20260505085510 21 74 0.0 3.2 0.00 0.00 0.00 89 1009.2
20260505085006 21 71 0.0 3.2 0.00 0.00 0.00 89 1009.2
20260505084007 21 60 0.0 3.2 0.00 0.00 0.00 89 1009.2
20260505083507 21 65 0.0 3.2 0.00 0.00 0.00 88 1009.2
20260505083021 21 69 0.0 1.6 0.00 0.00 0.00 88 1009.3
20260505082508 21 65 0.0 1.6 0.00 0.00 0.00 88 1009.5
20260505082010 21 68 0.0 3.2 0.00 0.00 0.00 88 1009.5
20260505081527 21 73 0.0 3.2 0.00 0.00 0.00 88 1009.6
20260505081008 21 64 0.0 3.2 0.00 0.00 0.00 87 1009.6
20260505080507 21 72 0.0 4.8 0.00 0.00 0.00 87 1009.6
20260505080033 21 74 0.0 4.8 0.00 0.00 0.00 87 1009.7
20260505075506 21 59 0.0 3.2 0.00 0.00 0.00 87 1009.7
20260505075007 21 72 0.0 3.2 0.00 0.00 0.00 87 1009.8
20260505074516 21 67 1.6 3.2 0.00 0.00 0.00 86 1009.8
20260505074007 21 59 0.0 4.8 0.00 0.00 0.00 86 1009.9
20260505073508 21 57 1.6 4.8 0.00 0.00 0.00 86 1009.8
20260505073040 21 69 0.0 3.2 0.00 0.00 0.00 86 1009.8
20260505072508 21 67 0.0 3.2 0.00 0.00 0.00 86 1009.8
20260505072011 21 64 1.6 4.8 0.00 0.00 0.00 86 1009.9
20260505071525 21 75 0.0 4.8 0.00 0.00 0.00 86 1009.9
20260505071011 21 68 1.6 4.8 0.00 0.00 0.00 85 1010.0
20260505070512 21 69 0.0 6.4 0.00 0.00 0.00 85 1010.1
20260505070028 21 67 1.6 8.0 0.00 0.00 0.00 85 1010.0
20260505065505 21 72 1.6 8.0 0.00 0.00 0.00 85 1010.0
20260505065006 21 67 1.6 6.4 0.00 0.00 0.00 85 1010.1
20260505064535 21 74 1.6 6.4 0.00 0.00 0.00 85 1010.1
20260505064007 21 107 1.6 8.0 0.00 0.00 0.00 84 1010.1
20260505063509 21 73 1.6 8.0 0.00 0.00 0.00 84 1010.2
20260505063026 21 67 1.6 8.0 0.00 0.00 0.00 84 1010.3
20260505062509 21 90 1.6 8.0 0.00 0.00 0.00 84 1010.4
20260505062011 21 74 1.6 6.4 0.00 0.00 0.00 84 1010.5
20260505061540 21 80 1.6 6.4 0.00 0.00 0.00 84 1010.7
20260505061010 21 78 1.6 4.8 0.00 0.00 0.00 84 1010.7
20260505060511 21 79 1.6 4.8 0.00 0.00 0.00 83 1010.9
20260505060033 21 69 1.6 6.4 0.00 0.00 0.00 83 1010.8
20260505055511 21 80 3.2 6.4 0.00 0.00 0.00 83 1010.8
20260505055011 21 85 1.6 4.8 0.00 0.00 0.00 83 1010.7
20260505054532 21 82 1.6 8.0 0.00 0.00 0.00 83 1010.7
20260505054007 21 67 3.2 8.0 0.00 0.00 0.00 83 1010.7
20260505053507 21 80 3.2 6.4 0.00 0.00 0.00 83 1010.7
20260505053008 21 68 1.6 6.4 0.00 0.00 0.00 83 1010.8
20260505052504 21 68 1.6 6.4 0.00 0.00 0.00 82 1010.9
20260505052004 21 72 1.6 4.8 0.00 0.00 0.00 82 1011.1
20260505051514 21 68 1.6 4.8 0.00 0.00 0.00 82 1011.1
20260505051006 21 63 1.6 6.4 0.00 0.00 0.00 82 1011.1
20260505050507 21 61 1.6 6.4 0.00 0.00 0.00 82 1011.1
20260505041515 22 71 3.2 8.0 0.00 0.00 0.00 80 1011.2
20260505041010 22 96 3.2 9.7 0.00 0.00 0.00 80 1011.1
20260505040023 22 86 3.2 11.3 0.00 0.00 0.00 79 1011.2
20260505035010 22 79 3.2 9.7 0.00 0.00 0.00 79 1011.3
20260505034506 22 73 3.2 9.7 0.00 0.00 0.00 79 1011.1
20260505034006 22 84 3.2 9.7 0.00 0.00 0.00 78 1011.2
20260505033503 22 79 3.2 12.9 0.00 0.00 0.00 78 1011.4
20260505033009 22 72 4.8 12.9 0.00 0.00 0.00 78 1011.4
20260505032505 22 65 3.2 9.7 0.00 0.00 0.00 78 1011.5
20260505032005 22 78 3.2 9.7 0.00 0.00 0.00 77 1011.5
20260505031530 22 81 3.2 12.9 0.00 0.00 0.00 77 1011.4
20260505031009 22 84 3.2 12.9 0.00 0.00 0.00 77 1011.3
20260505030509 22 65 4.8 11.3 0.00 0.00 0.00 76 1011.2
20260505030020 22 71 3.2 12.9 0.00 0.00 0.00 76 1011.3
20260505025511 22 65 3.2 12.9 0.00 0.00 0.00 76 1011.3
20260505025014 22 67 3.2 11.3 0.00 0.00 0.00 76 1011.2
20260505024508 22 84 3.2 9.7 0.00 0.00 0.00 76 1011.2
20260505024003 22 76 3.2 9.7 0.00 0.00 0.00 76 1011.3
20260505023503 22 88 3.2 12.9 0.00 0.00 0.00 76 1011.4
20260505023013 22 63 3.2 12.9 0.00 0.00 0.00 75 1011.3
20260505022506 22 84 3.2 9.7 0.00 0.00 0.00 75 1011.3
20260505022007 23 72 4.8 12.9 0.00 0.00 0.00 75 1011.2
20260505021520 23 105 3.2 12.9 0.00 0.00 0.00 75 1011.0
20260505021011 23 63 1.6 9.7 0.00 0.00 0.00 74 1011.1
20260505020508 23 45 3.2 9.7 0.00 0.00 0.00 74 1011.0
20260505020030 23 86 1.6 12.9 0.00 0.00 0.00 73 1011.0
20260505015513 23 63 6.4 12.9 0.00 0.00 0.00 73 1010.9
20260505015009 23 81 4.8 11.3 0.00 0.00 0.00 73 1011.0
20260505014529 23 84 4.8 11.3 0.00 0.00 0.00 73 1011.0
20260505014015 23 63 4.8 12.9 0.00 0.00 0.00 73 1010.9
20260505013514 23 75 1.6 12.9 0.00 0.00 0.00 73 1010.9
20260505013025 23 59 4.8 12.9 0.00 0.00 0.00 73 1010.7
20260505012506 23 71 4.8 14.5 0.00 0.00 0.00 73 1010.7
20260505012011 23 109 4.8 14.5 0.00 0.00 0.00 72 1010.7
20260505011529 23 79 3.2 12.9 0.00 0.00 0.00 73 1010.6
20260505011006 23 57 4.8 12.9 0.00 0.00 0.00 72 1010.6
20260505010508 23 64 3.2 12.9 0.00 0.00 0.00 72 1010.6
20260505010023 23 63 3.2 12.9 0.00 0.00 0.00 72 1010.7
20260505005507 23 86 4.8 12.9 0.00 0.00 0.00 71 1010.7
20260505005008 24 96 3.2 9.7 0.00 0.00 0.00 71 1010.6
20260505004542 24 105 3.2 11.3 0.00 0.00 0.00 71 1010.5
20260505004011 24 71 1.6 11.3 0.00 0.00 0.00 72 1010.6
20260505003509 24 74 4.8 11.3 0.00 0.00 0.00 71 1010.6
20260505003016 24 85 3.2 9.7 0.00 0.00 0.00 71 1010.4
20260505002514 24 72 4.8 9.7 0.00 0.00 0.00 70 1010.6
20260505002012 24 76 3.2 9.7 0.00 0.00 0.00 70 1010.5
20260505001522 24 80 3.2 9.7 0.00 0.00 0.00 70 1010.5
20260505001017 24 66 3.2 11.3 0.00 0.00 0.00 69 1010.5
20260505000508 24 67 3.2 11.3 0.00 0.00 0.00 69 1010.6
20260505000039 24 88 3.2 11.3 0.00 0.00 0.00 69 1010.7
20260504235510 25 91 3.2 11.3 0.00 0.00 0.00 69 1010.7
20260504235009 25 80 4.8 9.7 0.00 0.00 0.00 68 1010.7
20260504234526 25 96 3.2 11.3 0.00 0.00 0.00 69 1010.7
20260504234008 25 86 4.8 11.3 0.00 0.00 0.00 68 1010.7
20260504233513 25 72 4.8 12.9 0.00 0.00 0.00 68 1010.9
20260504231523 25 80 4.8 11.3 0.00 0.00 0.00 67 1010.9
20260504231012 25 83 4.8 11.3 0.00 0.00 0.00 67 1010.9
20260504230511 25 71 4.8 11.3 0.00 0.00 0.00 67 1010.9
20260504230026 25 96 3.2 11.3 0.00 0.00 0.00 66 1011.2
20260504225507 25 72 4.8 11.3 0.00 0.00 0.00 64 1011.1
20260504225012 25 70 4.8 9.7 0.00 0.00 0.00 64 1011.1
20260504224514 26 83 4.8 12.9 0.00 0.00 0.00 64 1011.1